| Date | Time | Temp. (oF) | Dew Point (oF) | Rel. Hum. (%) | Press. (in.) | Wind Dir. | Wind Speed (mph) | Hourly Rainfall (in.) |
|
|---|---|---|---|---|---|---|---|---|---|
| 1 | 06/21 | 00:00 | 75 | 57 | 55 | 29.83 | S | 0 | 0.00 |
| 2 | 06/20 | 23:00 | 75 | 59 | 59 | 29.86 | S | 3 | 0.00 |
| 3 | 06/20 | 22:00 | 76 | 59 | 57 | 29.87 | SSE | 4 | 0.00 |
| 4 | 06/20 | 21:00 | 79 | 59 | 52 | 29.87 | S | 2 | 0.00 |
| 5 | 06/20 | 20:00 | 81 | 57 | 45 | 29.87 | SSE | 6 | 0.00 |
| 6 | 06/20 | 19:00 | 85 | 57 | 40 | 29.88 | S | 3 | 0.00 |
| 7 | 06/20 | 18:00 | 85 | 57 | 39 | 29.91 | S | 4 | 0.00 |
| 8 | 06/20 | 17:00 | 86 | 54 | 34 | 29.93 | SSE | 10 | 0.00 |
| 9 | 06/20 | 16:00 | 88 | 55 | 34 | 29.96 | SSW | 6 | 0.00 |
| 10 | 06/20 | 15:00 | 87 | 54 | 34 | 29.98 | S | 15 | 0.00 |
| 11 | 06/20 | 14:00 | 86 | 57 | 38 | 30.02 | SE | 3 | 0.00 |
| 12 | 06/20 | 13:00 | 86 | 57 | 39 | 30.05 | SSE | 2 | 0.00 |
| 13 | 06/20 | 12:00 | 85 | 57 | 40 | 30.09 | NNE | 0 | 0.00 |
| 14 | 06/20 | 11:00 | 82 | 58 | 45 | 30.11 | N | 0 | 0.00 |
| 15 | 06/20 | 10:00 | 78 | 59 | 53 | 30.13 | SSW | 5 | 0.00 |
| 16 | 06/20 | 09:00 | 72 | 58 | 63 | 30.14 | NNE | 4 | 0.00 |
| 17 | 06/20 | 08:00 | 65 | 59 | 82 | 30.14 | S | 0 | 0.00 |
| 18 | 06/20 | 07:00 | 61 | 56 | 86 | 30.15 | ENE | 0 | 0.00 |
| 19 | 06/20 | 06:00 | 59 | 54 | 85 | 30.15 | SSE | 0 | 0.00 |
| 20 | 06/20 | 05:00 | 60 | 54 | 82 | 30.15 | ENE | 0 | 0.00 |
| 21 | 06/20 | 04:00 | 61 | 54 | 79 | 30.13 | N | 0 | 0.00 |
| 22 | 06/20 | 03:00 | 62 | 54 | 76 | 30.13 | NNW | 0 | 0.00 |
| 23 | 06/20 | 02:00 | 64 | 55 | 73 | 30.13 | WSW | 0 | 0.00 |
| 24 | 06/20 | 01:00 | 66 | 55 | 68 | 30.15 | WSW | 0 | 0.00 |